星链-30349 (STARLINK-30349 )

导读 | 星芒AI

STARLINK-30349 是 SpaceX 星链计划中的一颗低轨通信卫星,属于第 11 批组网卫星(Batch 11)。该卫星于 2023 年 9 月发射,运行在约 550 公里的高度,旨在为全球提供高速互联网服务。作为星链星座的一部分,它支持宽带接入、低延迟通信等功能,服务于偏远和网络基础设施薄弱地区。该卫星采用标准化设计,具备自动避碰和高效通信能力,是 SpaceX 扩展全球卫星互联网覆盖的重要组成部分。

基本信息
目录编号:
57713
目录名称:
STARLINK-30349
国际标识:
2023-129R
轨道中心:
EARTH
卫星名称:
星链-30349
卫星全名:
星链-30349 (STARLINK-30349 )
卫星状态:
在轨 (已飞行795 天)
发射日期:
2023-08-27 UTC
国别 :
美国 (US)
星等 :
--
轨道信息
数据来源 国际轨道数据
星历时间: 2025-10-30T12:23:10+0800
14小时前
查看轨道信息
半长轴: 6937.212km
偏心率: 0.0001212
轨道倾角: 43.003°
近地点辐角 267.063°
升交点赤经 109.358°
平近点角 93.007°
近地点: 558.236km
远地点: 559.918km
周期: 95.838分钟
每日圈数: 15.025375
详细信息
固有亮度:
5
最大亮度:
0.3
卫星平台:
Starlink v2.0 mini
覆盖范围:
全球
运营商:
太空探索技术公司
运营商所在国:
美国
制造商(研发单位):
太空探索技术公司
制造商所在国:
美国
使用方式:
暂无
卫星简介
星链(Starlink)计划是由太空探索技术公司(SpaceX)提出的一个巨型低轨卫星互联网星座项目,计划在2019年至2024年间在太空搭建由约1.2万颗卫星组成的“星链”网络,其中1584颗将部署在地球上空550千米处的近地轨道,并从2020年开始工作。该卫星仍在工作。
2D轨道图
3D轨道图
轨道高度分析图
轨道倾角分析图
轨道综合分析图
查看轨道综合分析图